Wind_Speed
61 62 60 59 57 54 52 51 50 49 49 47 46 45 43 42 41 40 40 39 38 37 36 36 35 35 36 36 36 36 37 38 38 39 40 40 41 43 44 45 45 46 48
61 61 61 59 58 55 52 50 51 50 49 48 47 46 45 43 42 41 40 39 38 37 36 36 36 36 36 36 36 36 37 38 38 39 39 40 42 43 44 44 46 47 49
60 61 61 60 59 56 53 51 51 51 49 49 48 46 44 42 42 41 40 39 38 37 36 36 36 36 35 36 37 37 38 38 38 39 40 41 42 43 44 45 46 48 49
57 60 60 60 59 57 54 52 50 50 50 49 48 46 44 42 41 41 40 39 38 37 37 35 35 35 36 36 37 38 38 38 39 40 40 41 42 43 44 45 47 48 49
55 56 57 58 59 59 56 53 51 50 50 49 47 46 44 42 40 39 39 38 38 37 36 35 35 35 36 37 37 37 38 38 39 40 40 41 42 43 44 45 46 48 50
53 53 53 54 56 57 56 55 52 50 49 49 48 46 44 42 40 38 37 37 37 36 35 35 36 37 36 36 37 37 38 38 38 40 40 40 41 42 43 45 47 49 51
52 53 53 54 54 56 56 54 51 50 50 49 47 46 44 41 40 39 36 36 36 35 35 36 36 36 36 36 36 37 37 37 38 39 39 40 41 42 44 46 47 49 51
51 54 54 53 53 53 54 53 51 50 50 48 46 45 44 42 40 39 38 37 36 36 36 36 36 36 35 36 36 36 36 36 37 37 38 39 40 42 44 46 47 49 50
50 52 53 52 52 52 53 52 52 50 49 47 46 45 44 42 41 39 38 37 37 36 36 36 36 35 34 35 35 35 35 36 37 37 38 39 40 42 43 45 47 48 50
49 49 51 51 51 51 51 49 48 48 47 46 44 43 43 42 41 40 39 38 37 36 36 35 34 34 34 34 34 35 36 36 36 36 38 39 40 41 42 44 46 48 51
47 48 48 47 47 48 49 48 46 46 46 46 45 43 42 41 41 40 39 38 37 36 36 35 34 34 34 33 34 35 35 35 36 37 38 39 40 40 42 44 47 49 52
45 46 46 45 46 46 47 47 45 43 43 43 43 43 42 41 39 39 39 38 37 36 34 33 34 34 33 33 33 34 34 35 36 36 37 38 39 40 42 45 47 51 53
44 45 46 46 46 45 46 46 45 42 40 40 41 42 41 39 38 38 37 37 35 34 33 33 33 33 32 32 33 33 33 34 35 36 36 37 39 41 43 45 48 51 53
44 45 45 46 45 45 45 45 43 41 39 38 38 38 39 38 38 38 37 36 34 33 33 33 32 32 32 32 32 32 33 33 33 34 35 37 39 42 44 46 49 51 52
44 44 45 45 45 44 44 44 42 41 40 38 37 36 36 36 36 37 36 35 33 33 32 31 30 30 31 31 32 31 31 31 32 33 34 36 39 42 44 47 48 50 50
43 43 43 44 44 44 44 43 42 40 39 39 38 37 37 37 37 37 35 35 33 31 30 29 29 29 29 30 30 30 30 31 31 32 35 38 40 42 44 46 47 48 49
43 43 43 43 42 43 43 43 42 40 38 38 38 38 37 37 36 35 34 32 31 29 28 28 28 28 28 28 28 28 29 29 31 33 36 38 40 42 44 45 46 47 48
42 43 43 43 42 41 42 42 41 40 38 37 37 37 36 35 34 33 33 31 30 28 28 27 27 26 26 26 26 27 28 29 32 34 36 38 40 41 43 44 45 45 46
41 41 41 42 43 42 42 42 41 40 38 37 37 36 34 33 33 33 32 30 29 27 26 25 24 24 24 25 26 26 27 29 31 33 36 38 39 41 42 43 43 44 45
39 40 40 41 42 42 42 42 40 39 38 37 35 34 33 32 32 30 29 28 27 26 25 24 23 23 24 24 25 26 27 29 31 33 35 37 38 40 41 41 42 43 44
38 39 39 39 40 41 41 41 40 38 37 36 35 33 33 32 30 28 26 26 26 25 24 23 23 23 23 24 25 26 27 29 31 33 34 36 37 38 39 40 41 42 43
38 38 38 38 39 41 40 39 39 38 37 36 35 34 32 31 29 27 26 25 24 23 23 22 22 22 23 23 24 25 27 29 30 32 33 35 36 36 38 39 40 42 42
38 38 39 38 39 38 39 39 37 36 36 35 35 34 32 30 28 26 25 24 23 22 21 21 21 21 22 23 24 26 27 27 29 30 32 34 35 35 37 38 39 41 42
37 37 38 38 39 38 37 37 37 37 37 35 34 32 30 29 27 25 24 23 21 20 20 20 20 20 21 22 23 24 25 26 27 29 31 33 34 34 36 37 39 40 41
37 37 37 38 38 37 37 36 36 35 34 33 31 30 29 28 26 24 23 22 20 19 19 19 19 20 21 22 22 23 24 26 27 29 30 32 33 33 34 36 38 40 41
36 37 38 38 38 37 36 35 34 33 32 31 30 29 28 26 24 23 22 20 20 19 19 19 19 19 20 21 22 23 24 25 27 28 30 31 31 32 34 36 38 40 40
Wind_Direction
214 215 215 215 217 218 220 221 222 223 224 227 228 230 232 234 237 239 242 245 248 251 255 260 264 268 272 275 279 282 284 286 290 294 296 298 300 303 304 306 308 310 311
214 215 215 215 216 217 219 221 222 222 224 226 229 231 233 235 238 241 243 246 249 252 256 260 264 268 272 275 279 283 285 288 291 294 296 299 301 303 304 306 308 310 312
213 214 216 215 216 217 219 221 222 224 225 227 229 231 233 236 239 241 244 246 249 252 256 261 266 269 273 276 280 284 286 289 291 294 297 299 301 303 305 307 309 310 312
214 215 216 216 216 217 219 221 223 225 226 227 229 232 234 236 239 242 245 247 249 253 257 262 266 270 273 277 282 284 286 288 291 294 297 299 302 304 306 307 309 311 312
215 216 217 218 218 217 219 222 224 226 226 227 229 232 234 237 239 242 245 247 250 253 258 263 267 271 276 279 283 284 286 289 292 294 297 299 302 304 306 308 309 311 312
215 216 217 217 218 218 219 222 224 226 227 229 230 233 235 238 239 241 246 248 251 254 259 263 267 272 276 280 283 285 287 289 292 295 297 300 303 305 306 307 309 311 313
215 216 216 217 217 219 220 222 225 227 228 231 232 235 237 238 239 241 245 248 251 254 259 263 268 272 276 280 282 286 289 291 293 296 299 301 303 305 306 308 310 312 314
216 216 215 216 217 218 220 221 223 226 229 231 233 235 236 238 239 242 245 248 251 254 259 264 268 272 275 279 283 286 289 292 295 297 300 303 304 306 307 309 311 313 315
217 217 217 217 217 218 219 221 223 225 228 230 232 233 235 237 240 243 246 249 252 255 260 265 269 271 276 279 283 286 289 292 296 299 302 304 304 306 308 309 313 315 317
218 218 218 218 218 218 219 221 223 224 227 228 230 231 233 236 240 243 246 250 253 257 261 266 268 271 276 280 283 287 290 294 297 299 302 304 305 307 308 311 314 316 318
218 218 217 218 218 219 220 221 223 225 227 229 230 232 234 237 241 244 248 251 254 257 261 265 269 272 276 281 285 289 292 294 298 300 302 304 305 307 310 312 315 317 319
218 218 217 217 217 218 220 221 223 225 227 228 230 233 236 239 242 246 247 250 254 257 261 265 270 273 277 281 286 291 293 295 298 300 302 304 306 308 311 313 315 317 319
217 217 217 217 218 218 219 221 223 225 227 228 231 234 236 238 241 245 246 249 253 256 260 265 269 272 277 282 286 290 293 295 298 300 302 304 306 309 312 314 316 318 320
217 216 215 215 216 217 219 220 222 224 226 228 231 234 235 237 241 244 246 250 254 258 261 263 267 272 277 282 286 289 293 295 298 300 303 305 308 311 313 315 318 320 321
215 214 213 213 215 216 218 220 222 224 228 229 230 232 233 238 241 244 247 250 255 258 259 261 267 272 277 282 287 290 292 295 298 300 303 306 309 312 314 317 319 321 323
214 213 211 212 215 216 217 219 221 223 225 226 229 231 234 236 238 241 245 249 252 255 258 262 266 272 277 283 287 290 293 295 298 300 303 307 311 313 315 318 321 323 324
213 213 211 212 214 216 216 217 220 222 224 225 227 229 232 234 236 240 243 246 249 253 257 262 266 272 277 282 286 290 294 297 299 302 305 309 312 314 317 319 322 323 325
212 212 211 211 213 214 214 215 217 219 221 223 224 227 229 232 236 239 242 245 249 253 257 262 267 272 276 281 286 291 294 297 300 303 307 311 313 316 319 321 323 324 325
209 209 209 211 212 212 213 214 216 217 218 221 224 225 228 231 235 238 240 243 247 250 255 260 265 270 274 280 286 291 294 298 301 305 309 312 315 318 321 322 324 325 326
208 208 208 210 210 211 212 213 215 217 219 221 222 224 227 230 233 235 237 240 243 247 251 256 263 269 273 279 286 292 296 300 303 307 311 314 317 320 322 324 325 326 327
208 208 207 208 209 210 212 214 216 216 217 218 219 222 226 229 231 232 236 239 242 245 248 254 261 268 272 279 287 293 297 300 304 309 312 315 319 322 324 325 327 328 329
209 209 208 209 210 210 210 212 213 215 215 216 220 223 226 227 228 230 233 237 240 243 247 253 262 268 274 282 288 293 298 301 306 311 314 318 321 324 326 327 328 330 331
208 208 209 208 207 207 207 208 210 213 214 215 218 220 222 223 224 227 231 234 238 243 247 253 261 269 276 283 288 294 299 303 308 312 316 320 323 325 326 328 330 332 332
203 204 204 203 202 202 203 205 208 209 211 214 215 216 217 218 221 225 228 231 236 240 245 252 262 270 278 284 291 296 301 305 310 315 320 323 324 325 327 329 331 333 333
197 198 198 199 198 197 199 201 203 205 206 209 211 213 214 216 218 222 225 230 234 239 246 253 263 273 280 286 292 299 303 307 312 318 321 324 325 326 328 330 332 333 334
193 195 194 194 195 196 197 198 201 202 203 204 206 210 212 213 216 219 223 228 233 239 247 256 264 274 282 288 294 300 305 310 315 319 323 325 326 327 329 332 333 334 335
Height
5606 5615 5624 5633 5642 5651 5659 5667 5674 5680 5687 5694 5700 5705 5709 5714 5718 5722 5726 5729 5731 5733 5735 5737 5737 5737 5737 5737 5735 5734 5732 5729 5727 5724 5720 5716 5712 5707 5702 5696 5690 5684 5678
5597 5606 5615 5624 5634 5642 5651 5658 5666 5672 5679 5686 5691 5696 5702 5706 5711 5715 5718 5721 5724 5726 5728 5729 5730 5730 5730 5729 5728 5726 5724 5721 5719 5716 5712 5708 5703 5699 5693 5688 5682 5675 5669
5587 5597 5606 5615 5625 5634 5642 5650 5657 5664 5671 5677 5683 5688 5694 5699 5703 5707 5710 5714 5716 5718 5720 5721 5722 5722 5722 5721 5720 5718 5716 5713 5711 5707 5704 5700 5695 5690 5684 5679 5673 5666 5659
5579 5588 5597 5607 5616 5626 5634 5642 5649 5656 5662 5669 5675 5680 5686 5691 5695 5699 5703 5706 5709 5711 5712 5714 5714 5714 5714 5713 5712 5710 5708 5705 5703 5699 5696 5691 5686 5681 5676 5670 5664 5657 5650
5570 5579 5589 5598 5608 5616 5625 5633 5640 5648 5655 5661 5667 5672 5678 5683 5688 5692 5695 5698 5701 5703 5705 5706 5707 5707 5706 5705 5704 5702 5700 5697 5694 5691 5687 5683 5678 5673 5667 5661 5654 5648 5640
5563 5572 5581 5590 5599 5607 5616 5624 5632 5639 5646 5653 5659 5665 5670 5676 5681 5684 5688 5691 5693 5695 5697 5698 5699 5699 5698 5697 5696 5694 5692 5689 5686 5683 5679 5674 5669 5664 5658 5652 5645 5639 5631
5555 5564 5573 5581 5590 5599 5608 5616 5624 5631 5638 5645 5652 5657 5663 5668 5673 5677 5680 5683 5685 5688 5689 5690 5691 5691 5690 5689 5688 5686 5684 5681 5678 5675 5671 5666 5661 5655 5650 5643 5636 5628 5620
5547 5556 5565 5573 5582 5590 5599 5608 5615 5623 5630 5637 5644 5650 5655 5660 5665 5669 5672 5675 5677 5680 5681 5682 5683 5683 5682 5682 5680 5678 5676 5673 5670 5666 5662 5657 5652 5646 5640 5634 5626 5619 5611
5539 5548 5557 5565 5573 5582 5591 5599 5607 5614 5622 5629 5635 5641 5647 5652 5657 5661 5664 5667 5669 5672 5673 5674 5675 5675 5675 5674 5672 5670 5668 5665 5661 5657 5653 5648 5643 5637 5631 5625 5617 5610 5602
5532 5540 5548 5557 5565 5574 5583 5591 5598 5606 5613 5620 5627 5633 5639 5644 5649 5652 5656 5659 5662 5664 5665 5666 5667 5667 5667 5665 5664 5662 5660 5656 5653 5649 5644 5639 5634 5628 5622 5616 5609 5601 5593
5524 5532 5541 5549 5557 5566 5574 5582 5590 5598 5605 5612 5619 5625 5630 5635 5640 5644 5648 5651 5654 5656 5657 5659 5659 5659 5659 5657 5656 5654 5651 5648 5645 5641 5636 5631 5626 5620 5614 5607 5600 5592 5584
5516 5525 5533 5542 5550 5558 5566 5574 5582 5589 5597 5603 5610 5616 5622 5627 5632 5636 5640 5643 5646 5648 5650 5651 5651 5651 5650 5649 5648 5646 5643 5640 5636 5632 5628 5623 5618 5612 5606 5599 5591 5583 5575
5508 5516 5525 5534 5542 5550 5558 5566 5574 5581 5588 5595 5602 5608 5614 5619 5624 5628 5631 5634 5637 5640 5641 5642 5643 5643 5642 5641 5639 5637 5635 5632 5628 5624 5620 5615 5610 5604 5598 5590 5582 5574 5565
5500 5509 5517 5526 5534 5543 5551 5558 5566 5574 5581 5588 5594 5600 5606 5611 5616 5620 5623 5626 5629 5631 5633 5634 5635 5634 5634 5633 5632 5629 5627 5624 5620 5616 5612 5608 5602 5596 5589 5582 5574 5565 5557
5493 5501 5509 5518 5526 5535 5543 5551 5559 5567 5574 5581 5587 5593 5598 5604 5609 5613 5616 5619 5622 5624 5625 5626 5627 5627 5627 5626 5624 5622 5619 5616 5613 5609 5605 5600 5594 5588 5581 5574 5566 5557 5548
5486 5494 5502 5510 5519 5527 5535 5544 5551 5559 5566 5573 5579 5585 5591 5596 5600 5604 5607 5611 5614 5616 5618 5619 5620 5620 5619 5618 5617 5614 5612 5609 5606 5602 5598 5592 5586 5580 5573 5565 5557 5549 5540
5478 5487 5495 5503 5511 5520 5528 5536 5544 5551 5557 5564 5571 5577 5583 5587 5592 5596 5599 5602 5605 5608 5610 5612 5613 5613 5612 5611 5609 5607 5605 5602 5598 5595 5590 5585 5579 5572 5565 5557 5549 5541 5532
5471 5479 5487 5496 5504 5513 5520 5529 5537 5544 5551 5557 5563 5569 5574 5579 5584 5588 5592 5595 5598 5601 5603 5605 5605 5605 5605 5604 5603 5601 5598 5595 5591 5587 5583 5577 5571 5564 5557 5550 5542 5533 5525
5464 5472 5480 5488 5497 5505 5513 5521 5529 5537 5544 5550 5556 5561 5566 5571 5576 5580 5584 5588 5592 5594 5596 5597 5598 5598 5598 5597 5596 5594 5591 5588 5584 5580 5575 5570 5564 5557 5550 5542 5534 5526 5518
5458 5466 5474 5481 5489 5498 5506 5514 5522 5529 5536 5542 5549 5554 5560 5564 5569 5573 5577 5581 5584 5587 5589 5590 5591 5591 5591 5591 5589 5587 5584 5581 5577 5573 5568 5562 5556 5550 5542 5535 5527 5519 5511
5451 5459 5467 5474 5482 5490 5499 5507 5514 5522 5529 5536 5542 5548 5553 5558 5563 5567 5570 5574 5577 5579 5582 5584 5585 5585 5585 5584 5583 5581 5578 5574 5570 5566 5561 5555 5549 5543 5536 5528 5521 5513 5505
5445 5453 5460 5468 5476 5484 5491 5499 5507 5515 5522 5529 5535 5541 5546 5551 5556 5560 5564 5567 5570 5573 5575 5577 5578 5579 5578 5578 5576 5574 5571 5568 5564 5559 5554 5549 5543 5536 5529 5522 5515 5507 5498
5439 5447 5454 5461 5469 5477 5485 5493 5501 5509 5516 5523 5529 5534 5540 5545 5550 5554 5558 5561 5564 5567 5569 5571 5572 5573 5572 5571 5570 5568 5564 5561 5557 5553 5548 5542 5536 5530 5523 5516 5509 5501 5493
5433 5441 5448 5456 5464 5472 5480 5488 5496 5503 5510 5516 5523 5528 5534 5539 5544 5548 5552 5555 5559 5561 5564 5566 5566 5567 5566 5565 5563 5561 5558 5554 5551 5546 5541 5536 5530 5524 5517 5510 5503 5496 5487
5429 5436 5444 5452 5460 5467 5475 5483 5490 5498 5504 5511 5517 5523 5528 5533 5538 5543 5547 5551 5554 5556 5558 5560 5561 5561 5561 5559 5557 5555 5552 5548 5545 5540 5535 5530 5524 5518 5512 5505 5498 5490 5482
5425 5433 5440 5448 5456 5464 5471 5479 5486 5493 5500 5506 5512 5518 5524 5529 5534 5538 5542 5546 5549 5551 5553 5555 5556 5556 5555 5554 5552 5549 5546 5543 5539 5534 5529 5524 5518 5512 5506 5500 5493 5485 5477